Location: Ca�n Batista
(41.4099°N, 1.7752°E)
Time: 14:55:46
(UTC+00:00)

SAR-Lupe-1 - Pass Details

Date: 03 March 2021
Orbit: 482 x 483 km, 98.2° (Epoch: 30 March)

Event Time Altitude Azimuth Distance (km) Brightness Sun altitude
Rises 18:26:09 0° 18° (NNE) 2,555 7.5 -8.3°
Reaches altitude 10° 18:28:17 10° 25° (NNE) 1,670 6.5 -8.7°
Maximum altitude 18:31:46 48° 100° (E) 639 4.2 -9.4°
Drops below altitude 10° 18:35:13 10° 176° (S) 1,657 6.7 -10.0°
Sets 18:37:18 0° 182° (S) 2,531 7.7 -10.4°
